[[{"header":{"parameterUnit":"m.s-1","parameterCategory":1,"la1":30.2991,"la2":30.254,"lo1":-89.0895,"lo2":-89.0444,"dy":0.0017,"dx":0.0017,"nx":28,"ny":28,"refTime":"2023-10-11T09:00:00:Z","depth":0,"parameterNumber":2,"parameterNumberName":"U-component_of_WINDS"},"data":[0,0,0,0,0,0,0,0,0,0,0,0,0,0,0,0,0,0,0,0,0,0,0,0,0,0,0,0,0,0,0,0,0,0,0,0,0,0,0,0,0,0,0,0,0,0,0,0,0,0,0,0,0,0,0,0,0,0,-5.3876,-5.3876,0,-5.3815,-5.3814,-5.3813,-5.364,-5.3636,-5.3633,-5.3629,-5.3571,-5.3573,-5.3575,0,0,0,0,0,0,0,0,0,0,0,0,0,-5.3848,-5.385,-5.3877,-5.3876,-5.3875,-5.3815,-5.3814,-5.3813,-5.3641,-5.3636,-5.3632,-5.3627,-5.3571,-5.3573,-5.3575,0,0,0,0,0,0,0,0,0,0,0,0,0,-5.3831,-5.385,-5.3877,-5.3782,-5.3772,-5.3815,-5.3814,-5.3813,-5.3642,-5.3636,-5.363,-5.3625,-5.357,-5.3573,-5.3576,-5.3707,0,0,-5.3585,-5.3586,0,0,0,0,0,0,0,0,-5.3833,-5.3833,-5.3796,-5.3788,-5.3778,-5.3729,-5.3783,-5.3778,-5.3643,-5.3692,-5.3629,-5.3622,-5.3629,-5.3626,-5.3627,-5.3704,-5.3702,-5.3585,-5.3587,-5.3588,-5.3589,0,0,0,0,0,0,0,-5.3834,-5.3834,-5.3852,-5.3796,-5.3785,-5.3743,-5.3734,-5.3781,-5.3693,-5.3687,-5.3674,-5.3669,-5.3623,-5.3625,-5.3625,-5.3701,-5.3585,-5.3587,-5.3589,-5.359,-5.3882,-5.3888,0,0,0,0,0,0,-5.3848,-5.3836,-5.3854,-5.385,-5.3792,-5.3748,-5.3738,-5.3751,-5.3692,-5.3677,-5.3674,-5.3661,-5.3623,-5.3622,-5.3622,-5.3772,-5.3588,-5.3591,-5.3592,-5.3876,-5.3883,-5.389,0,0,0,0,0,0,-5.3848,-5.3851,-5.3857,-5.384,-5.3837,-5.3755,-5.377,-5.3753,-5.3755,-5.3682,-5.3666,-5.3692,-5.3618,-5.3618,-5.3687,-5.3768,-5.3592,-5.3595,-5.3869,-5.3878,-5.3887,-5.4074,0,0,0,0,0,0,-5.3848,-5.3852,-5.3901,-5.3842,-5.3839,-5.3922,-5.3775,-5.3755,-5.376,-5.3742,-5.3695,-5.3682,-5.3614,-5.3683,-5.369,-5.3769,-5.3597,-5.3862,-5.3873,-5.3884,-5.406,-5.4088,-5.4112,0,0,0,0,0,-5.3848,-5.3957,-5.3904,-5.3907,-5.3898,-5.3927,-5.3925,-5.3843,-5.3767,-5.3815,-5.3768,-5.3683,-5.3757,-5.3692,-5.3698,-5.3779,-5.3856,-5.387,-5.3883,-5.4048,-5.4082,-5.4111,0,0,0,0,0,0,-5.403,-5.3948,-5.3888,-5.3982,-5.3962,-5.3897,-5.3956,-5.3882,-5.3885,-5.387,-5.3769,-5.376,-5.3843,-5.3817,-5.3745,-5.3902,-5.3793,-5.3808,-5.3917,-5.3948,-5.3974,-5.3979,-5.36,0,0,0,0,0,-5.4081,-5.411,-5.4037,-5.4127,-5.412,-5.404,-5.405,-5.3988,-5.3965,-5.3956,-5.3914,-5.3896,-5.3915,-5.393,-5.3943,-5.4055,-5.4042,-5.4113,-5.4139,-5.4161,-5.4176,-5.4233,-5.4264,-5.3934,-5.3934,-5.3934,0,0,-5.4187,-5.4146,-5.4171,-5.4163,-5.414,-5.4174,-5.4035,-5.4076,-5.4101,-5.3963,-5.4025,-5.3994,-5.3967,-5.4058,-5.4095,-5.4039,-5.4264,-5.4178,-5.4196,-5.4199,-5.425,-5.4281,-5.4309,-5.3943,-5.3941,-5.394,0,0,-5.4398,-5.4369,-5.444,-5.442,-5.4387,-5.4332,-5.435,-5.4296,-5.4269,-5.4329,-5.4226,-5.4254,-5.4289,-5.4274,-5.4271,-5.4474,-5.4396,-5.4481,-5.4618,-5.4674,-5.47,-5.4723,-5.4796,-5.4823,-5.4496,-5.4496,-5.4496,0,-5.4534,-5.4579,-5.4487,-5.4535,-5.4534,-5.4408,-5.448,-5.4466,-5.444,-5.4444,-5.438,-5.442,-5.4393,-5.4478,-5.4527,-5.4529,-5.4546,-5.4487,-5.4704,-5.4725,-5.4745,-5.4814,-5.4841,-5.4507,-5.4506,-5.4504,-5.4503,0,-5.4749,-5.4782,-5.4844,-5.482,-5.4826,-5.4886,-5.4804,-5.4821,-5.4759,-5.4712,-5.4775,-5.4737,-5.4741,-5.4756,-5.4697,-5.4833,-5.4799,-5.4721,-5.4609,-5.4789,-5.4852,-5.4877,-5.4522,-5.4518,-5.4515,-5.4512,0,0,-5.5076,-5.4997,-5.5022,-5.5009,-5.4962,-5.4986,-5.5041,-5.5042,-5.506,-5.5046,-5.5089,-5.5121,-5.5047,-5.5044,-5.4981,-5.5031,-5.5195,-5.4946,-5.4944,-5.4995,-5.5344,-5.5404,-5.5436,-5.5142,-5.5147,-5.515,-5.5346,0,-5.5275,-5.5362,-5.5279,-5.5383,-5.5412,-5.5292,-5.5339,-5.5317,-5.5274,-5.5294,-5.5246,-5.5271,-5.5172,-5.5169,-5.5213,-5.5166,-5.5264,-5.515,-5.5183,-5.5186,-5.5195,-5.5468,-5.5532,-5.572,-5.537,-5.5374,-5.5377,0,-5.552,-5.5515,-5.5621,-5.5566,-5.5576,-5.5619,-5.5613,-5.5633,-5.5605,-5.557,-5.5566,-5.5488,-5.5539,-5.5428,-5.5497,-5.5421,-5.543,-5.5409,-5.5414,-5.5415,-5.5294,-5.5479,-5.5777,-5.5806,-5.5415,-5.5412,-5.5409,0,-5.5749,-5.5769,-5.5834,-5.5827,-5.5764,-5.5798,-5.5774,-5.5739,-5.5745,-5.574,-5.5743,-5.5745,-5.5747,-5.5751,-5.5677,-5.5603,-5.5755,-5.5638,-5.5729,-5.5731,-5.5768,-5.5767,-5.6074,-5.5772,-5.5772,-5.5771,-5.577,0,-5.5981,-5.6052,-5.5936,-5.5977,-5.6051,-5.5955,-5.6033,-5.5996,-5.5966,-5.5999,-5.5895,-5.5928,-5.5827,-5.585,-5.5792,-5.5858,-5.5859,-5.5834,-5.5818,-5.5844,-5.5848,-5.5849,-5.5835,-5.5778,-5.5777,-5.5775,-5.5774,0,-5.6251,-5.6176,-5.6239,-5.6174,-5.6159,-5.6217,-5.6161,-5.6197,-5.6146,-5.6189,-5.6193,-5.6114,-5.6136,-5.6061,-5.607,-5.6031,-5.6129,-5.6091,-5.6138,-5.6127,-5.6223,-5.6215,-5.6543,-5.6581,-5.6254,-5.6257,-5.626,0,-5.6405,-5.6455,-5.6394,-5.6407,-5.6388,-5.6411,-5.6415,-5.6322,-5.6332,-5.6302,-5.6342,-5.6354,-5.6358,-5.6398,-5.6343,-5.635,-5.6312,-5.6426,-5.6313,-5.6337,-5.6315,-5.6313,-5.6318,-5.6451,-5.6455,-5.6458,-5.646,0,-5.6687,-5.6646,-5.6656,-5.6652,-5.666,-5.6653,-5.6639,-5.6657,-5.6557,-5.6573,-5.6591,-5.6595,-5.6603,-5.6617,-5.6612,-5.6588,-5.6509,-5.6496,-5.6518,-5.6546,-5.6571,-5.656,-5.6204,-5.649,-5.6487,-5.6485,-5.6483,-5.6482,-5.6903,-5.6942,-5.6905,-5.6919,-5.6898,-5.6887,-5.6917,-5.6868,-5.6882,-5.688,-5.6824,-5.6855,-5.6824,-5.6808,-5.6793,-5.6816,-5.6763,-5.6794,-5.6802,-5.6812,-5.6829,-5.6566,-5.6815,-5.6814,-5.6813,-5.6812,-5.6811,0,-5.7181,-5.715,-5.7163,-5.7146,-5.7157,-5.7077,-5.7058,-5.7073,-5.71,-5.7077,-5.7083,-5.7105,-5.7118,-5.7063,-5.7067,-5.7097,-5.7061,-5.7102,-5.7099,-5.7095,-5.6875,-5.6856,-5.7131,-5.7131,-5.7131,-5.713,-5.713,-5.713,-5.7326,-5.7388,-5.7343,-5.7394,-5.7362,-5.7389,-5.7385,-5.7375,-5.7355,-5.7384,-5.7393,-5.7355,-5.732,-5.7321,-5.7329,-5.7313,-5.732,-5.7374,-5.7346,-5.7142,-5.7111,-5.7081,-5.7063,-5.7376,-5.7376,-5.7563,-5.7565,-5.7566]},{"header":{"parameterUnit":"m.s-1","parameterCategory":1,"la1":30.2991,"la2":30.254,"lo1":-89.0895,"lo2":-89.0444,"dy":0.0017,"dx":0.0017,"nx":28,"ny":28,"refTime":"2023-10-11T09:00:00:Z","depth":0,"parameterNumber":3,"parameterNumberName":"V-component_of_WINDS"},"data":[0,0,0,0,0,0,0,0,0,0,0,0,0,0,0,0,0,0,0,0,0,0,0,0,0,0,0,0,0,0,0,0,0,0,0,0,0,0,0,0,0,0,0,0,0,0,0,0,0,0,0,0,0,0,0,0,0,0,-9.6517,-9.6518,0,-9.6553,-9.6553,-9.6553,-9.6374,-9.6369,-9.6364,-9.6359,-9.6393,-9.6398,-9.6404,0,0,0,0,0,0,0,0,0,0,0,0,0,-9.6292,-9.6297,-9.6517,-9.6518,-9.6518,-9.6553,-9.6553,-9.6553,-9.6375,-9.6369,-9.6363,-9.6357,-9.6391,-9.6398,-9.6404,0,0,0,0,0,0,0,0,0,0,0,0,0,-9.6365,-9.6299,-9.6517,-9.6433,-9.6426,-9.6552,-9.6553,-9.6554,-9.6376,-9.6369,-9.6361,-9.6354,-9.6389,-9.6397,-9.6405,-9.6613,0,0,-9.6431,-9.6435,0,0,0,0,0,0,0,0,-9.6361,-9.6373,-9.6445,-9.6439,-9.6432,-9.6451,-9.6486,-9.6573,-9.6378,-9.6395,-9.6359,-9.635,-9.6418,-9.6424,-9.6447,-9.6615,-9.6616,-9.6432,-9.6437,-9.6441,-9.6443,0,0,0,0,0,0,0,-9.6356,-9.6371,-9.6531,-9.6447,-9.6438,-9.6393,-9.6395,-9.6501,-9.645,-9.6393,-9.638,-9.6387,-9.6413,-9.644,-9.6447,-9.6616,-9.6432,-9.644,-9.6445,-9.6448,-9.6955,-9.6963,0,0,0,0,0,0,-9.6363,-9.6368,-9.653,-9.6532,-9.6377,-9.6403,-9.6405,-9.6453,-9.6448,-9.644,-9.6394,-9.6379,-9.6429,-9.6437,-9.6447,-9.669,-9.6441,-9.6449,-9.6454,-9.6947,-9.6957,-9.6966,0,0,0,0,0,0,-9.6359,-9.6379,-9.6529,-9.6447,-9.6462,-9.6415,-9.647,-9.6457,-9.6484,-9.6448,-9.6438,-9.6431,-9.6423,-9.6435,-9.6573,-9.6689,-9.6453,-9.6461,-9.6937,-9.695,-9.6961,-9.7178,0,0,0,0,0,0,-9.6353,-9.6378,-9.6458,-9.645,-9.6467,-9.6656,-9.6477,-9.6464,-9.6499,-9.648,-9.648,-9.6473,-9.6418,-9.6561,-9.6582,-9.6696,-9.6467,-9.6926,-9.6942,-9.6957,-9.716,-9.7196,-9.7227,0,0,0,0,0,-9.6345,-9.6517,-9.6463,-9.6484,-9.6566,-9.6663,-9.6673,-9.6607,-9.651,-9.6588,-9.6565,-9.6473,-9.6673,-9.6577,-9.6598,-9.6717,-9.6919,-9.6938,-9.6956,-9.7145,-9.7189,-9.7226,0,0,0,0,0,0,-9.6539,-9.6515,-9.6454,-9.6629,-9.6649,-9.6632,-9.673,-9.6655,-9.6703,-9.6683,-9.6598,-9.6599,-9.6752,-9.6747,-9.6642,-9.6917,-9.6778,-9.6802,-9.6915,-9.6957,-9.6989,-9.6988,-9.6474,0,0,0,0,0,-9.6603,-9.6685,-9.6658,-9.6814,-9.6828,-9.6778,-9.6817,-9.6765,-9.6782,-9.679,-9.6777,-9.6797,-9.6863,-9.6909,-9.6969,-9.7158,-9.7155,-9.725,-9.7284,-9.7311,-9.7334,-9.7433,-9.7475,-9.7027,-9.7027,-9.7027,0,0,-9.6734,-9.673,-9.6787,-9.6853,-9.6863,-9.6949,-9.6786,-9.6884,-9.6946,-9.6804,-9.6934,-9.6925,-9.6941,-9.7106,-9.7178,-9.7107,-9.7456,-9.7335,-9.7358,-9.7365,-9.7457,-9.7499,-9.7537,-9.704,-9.7037,-9.7035,0,0,-9.7017,-9.7023,-9.7154,-9.7167,-9.7184,-9.715,-9.7181,-9.7176,-9.7165,-9.7294,-9.7189,-9.7261,-9.7378,-9.7394,-9.7418,-9.7706,-9.7623,-9.7728,-9.7903,-9.8001,-9.8036,-9.8067,-9.8171,-9.8209,-9.7749,-9.775,-9.775,0,-9.7178,-9.7305,-9.7231,-9.7336,-9.7368,-9.7243,-9.7375,-9.739,-9.7426,-9.745,-9.7371,-9.7515,-9.7517,-9.7684,-9.7754,-9.7777,-9.781,-9.7728,-9.8037,-9.8068,-9.8095,-9.8193,-9.8232,-9.7763,-9.7761,-9.776,-9.7759,0,-9.7502,-9.7591,-9.7694,-9.7733,-9.7776,-9.7894,-9.7837,-9.7889,-9.7832,-9.7806,-9.7938,-9.7936,-9.7993,-9.8028,-9.7973,-9.8187,-9.8143,-9.8052,-9.7911,-9.8152,-9.8242,-9.8279,-9.7781,-9.7776,-9.7773,-9.7769,0,0,-9.791,-9.7906,-9.7945,-9.7961,-9.797,-9.8037,-9.8148,-9.8205,-9.8252,-9.8279,-9.8371,-9.8472,-9.8388,-9.8415,-9.836,-9.8446,-9.8676,-9.8344,-9.8343,-9.8407,-9.8911,-9.8981,-9.9026,-9.862,-9.8627,-9.8632,-9.891,0,-9.8188,-9.838,-9.8316,-9.851,-9.8591,-9.8474,-9.857,-9.8586,-9.8564,-9.8628,-9.8602,-9.8677,-9.8559,-9.8575,-9.8654,-9.8631,-9.8776,-9.861,-9.8704,-9.8708,-9.8705,-9.9073,-9.9147,-9.941,-9.8945,-9.8951,-9.8955,0,-9.8539,-9.8582,-9.8785,-9.878,-9.8812,-9.89,-9.8947,-9.901,-9.9024,-9.9002,-9.9032,-9.8959,-9.9067,-9.8925,-9.9072,-9.8961,-9.8994,-9.8989,-9.8997,-9.9005,-9.8848,-9.9091,-9.9492,-9.9532,-9.901,-9.9006,-9.9002,0,-9.8818,-9.8926,-9.9062,-9.9079,-9.9076,-9.9141,-9.9143,-9.9149,-9.9188,-9.9227,-9.9251,-9.9303,-9.9332,-9.9373,-9.9315,-9.9217,-9.9471,-9.9324,-9.9455,-9.9458,-9.9516,-9.9513,-9.9929,-9.9536,-9.9536,-9.9535,-9.9534,0,-9.9136,-9.9265,-9.9187,-9.9271,-9.9411,-9.9335,-9.9476,-9.9464,-9.9471,-9.955,-9.945,-9.9525,-9.9444,-9.9511,-9.9467,-9.9596,-9.9609,-9.9594,-9.9581,-9.9604,-9.9606,-9.9626,-9.9607,-9.9545,-9.9543,-9.9541,-9.9539,0,-9.9472,-9.9425,-9.9565,-9.9551,-9.955,-9.9655,-9.9641,-9.9718,-9.9687,-9.9788,-9.9807,-9.976,-9.9835,-9.9781,-9.9854,-9.9824,-9.9994,-9.9954,-9.999,-9.998,-10.0115,-10.0103,-10.0559,-10.0615,-10.0186,-10.019,-10.0193,0,-9.9679,-9.9775,-9.9772,-9.9818,-9.9826,-9.9901,-9.9939,-9.9867,-9.9911,-9.9935,-10.0008,-10.0074,-10.0123,-10.0247,-10.0219,-10.0274,-10.0236,-10.0392,-10.0244,-10.0264,-10.024,-10.0236,-10.0245,-10.0423,-10.0428,-10.0432,-10.0435,0,-10.0051,-10.0023,-10.0083,-10.0135,-10.0184,-10.0221,-10.025,-10.0293,-10.022,-10.0274,-10.0349,-10.0387,-10.0462,-10.0529,-10.0574,-10.0574,-10.0494,-10.0482,-10.0515,-10.0541,-10.0558,-10.0552,-10.0073,-10.0472,-10.0468,-10.0466,-10.0464,-10.0462,-10.033,-10.041,-10.042,-10.049,-10.0504,-10.0533,-10.0604,-10.0583,-10.0645,-10.0702,-10.0654,-10.0745,-10.0755,-10.0808,-10.0818,-10.0887,-10.0822,-10.0871,-10.0883,-10.0897,-10.0917,-10.0546,-10.0894,-10.0893,-10.0892,-10.0891,-10.089,0,-10.0698,-10.0698,-10.0763,-10.0807,-10.0862,-10.0781,-10.0808,-10.086,-10.0941,-10.0958,-10.1008,-10.1094,-10.1158,-10.1135,-10.1191,-10.1251,-10.1215,-10.1268,-10.1264,-10.1265,-10.097,-10.0936,-10.1296,-10.1296,-10.1296,-10.1296,-10.1296,-10.1296,-10.0896,-10.1028,-10.1001,-10.1139,-10.1137,-10.1226,-10.1249,-10.1275,-10.1288,-10.139,-10.1442,-10.1427,-10.1428,-10.1483,-10.1538,-10.1529,-10.1555,-10.1622,-10.16,-10.1326,-10.1286,-10.1248,-10.1215,-10.1628,-10.1628,-10.1889,-10.1892,-10.1894]}]]